Regional Weather Roundup
Issued by NWS

Home | Current Version | Previous Version | Text Only | Print | Product List | Glossary Off
Versions: 1 2 3 4 5 6 7 8 9 10 11 12 13 14 15 16 17 18 19 20 21 22 23 24 25 26 27

000
ASUS45 KCYS 250610
RWRWY

WYOMING REGIONAL WEATHER ROUNDUP
NATIONAL WEATHER SERVICE CHEYENNE WY
1200 AM MDT SUN SEP 25 2016

NOTE:  "FAIR" INDICATES FEW OR NO CLOUDS BELOW 12,000 FEET
WITH NO SIGNIFICANT WEATHER AND/OR OBSTRUCTIONS TO VISIBILITY.

WYZ001-250700-
YELLOWSTONE NATIONAL PARK

CITY           SKY/WX    TMP DP  RH WIND       PRES   REMARKS
LK YELLOWSTONE   N/A     28  27  96 CALM      30.45S
6HR MIN TEMP:  27; 6HR MAX TEMP:  44;

W YELLOWSTONE  NOT AVBL

$$
WYZ002>013-054>058-071-098>099-250700-
NORTHERN WYOMING

CITY           SKY/WX    TMP DP  RH WIND       PRES   REMARKS
JACKSON        FAIR      37  34  87 CALM      30.42R
CODY           CLOUDY    45  41  86 SE3       30.34R
GREYBULL       FAIR      47  46  97 S3        30.31R
6HR MIN TEMP:  47; 6HR MAX TEMP:  51;

WORLAND        FAIR      44  41  89 SW7       30.31R
6HR MIN TEMP:  44; 6HR MAX TEMP:  49;

SHERIDAN       CLOUDY    49  45  86 NW13      30.27R
6HR MIN TEMP:  47; 6HR MAX TEMP:  51; 6HR PCP: TRACE;

BUFFALO        CLOUDY    46  42  86 NW8       30.28R
6HR MIN TEMP:  45; 6HR MAX TEMP:  51; 6HR PCP:  0.01;

GILLETTE       CLOUDY    46  44  93 NW17G26   30.23R
6HR MIN TEMP:  44; 6HR MAX TEMP:  46; 6HR PCP:  0.06;

HULETT         CLOUDY    46  43  87 NW12G21   30.19R
NEWCASTLE      CLOUDY    45  41  87 NW22G28   30.20R

$$
WYZ014>020-022>026-101>103-250700-
CENTRAL WYOMING

CITY           SKY/WX    TMP DP  RH WIND       PRES   REMARKS
BIG PINEY      FAIR      33  31  92 NW5       30.42R WCI  29
6HR MIN TEMP:  33; 6HR MAX TEMP:  50;

PINEDALE       FAIR      36  32  87 NW14      30.42R WCI  27
DUBOIS         FAIR      41  28  60 W15G25    30.39R
LANDER         FAIR      40  37  89 CALM      30.36R
6HR MIN TEMP:  39; 6HR MAX TEMP:  48;

RIVERTON       FAIR      42  39  89 SW10      30.36S
6HR MIN TEMP:  42; 6HR MAX TEMP:  48;

CASPER         FAIR      42  37  82 SW13      30.32S
6HR MIN TEMP:  41; 6HR MAX TEMP:  47;

DOUGLAS        FAIR      46  38  73 NW14      30.30R
6HR MIN TEMP:  46; 6HR MAX TEMP:  50;


$$
WYZ021-027>030-104>119-250700-
SOUTHERN WYOMING

CITY           SKY/WX    TMP DP  RH WIND       PRES   REMARKS
EVANSTON       FAIR      40  31  70 SW3       30.47R
6HR MIN TEMP:  37; 6HR MAX TEMP:  49;

FORT BRIDGER   FAIR      42  34  74 W9        30.48R
ROCK SPRINGS   FAIR      40  34  79 W3        30.42R
6HR MIN TEMP:  39; 6HR MAX TEMP:  47;

DIXON          FAIR      41  38  91 CALM      30.44R
RAWLINS        CLOUDY    40  36  86 W6        30.42R
6HR MIN TEMP:  40; 6HR MAX TEMP:  42; 6HR PCP: TRACE;

SARATOGA       CLOUDY    41  41 100 NW6       30.43R
LARAMIE        MOCLDY    41  33  73 NW15      30.37R
6HR MIN TEMP:  38; 6HR MAX TEMP:  44; 6HR PCP: TRACE;

CHEYENNE       FAIR      44  35  70 NW8G18    30.32R
6HR MIN TEMP:  44; 6HR MAX TEMP:  52;

TORRINGTON     FAIR      45  39  79 W3        30.26R
6HR MIN TEMP:  44; 6HR MAX TEMP:  54;

PINE BLUFFS    FAIR      45  36  70 NW16G24   30.30R

$$




USA.gov is the U.S. government's official web portal to all federal, state and local government web resources and services.